{"data":{"norad_id":81488,"epoch":"2026-05-23T10:39:04.523904Z","epoch_age_seconds":199765,"freshness":"STALE","line1":"1 81488U          26143.44380236  .00000405  00000+0  63501-3 0  9991","line2":"2 81488  99.9818  23.3697 0043906 319.9078 220.9954 13.56614011618558","mean_motion":13.56614011,"eccentricity":0.0043906,"inclination_deg":99.9818,"raan_deg":23.3697,"arg_perigee_deg":319.9078,"mean_anomaly_deg":220.9954,"bstar":0.00063501,"rev_number":61855,"period_min":106.14662596169,"perigee_km":1015.4178242382,"apogee_km":1080.6284215092,"semimajor_km":7426.1601228737,"source":"CELESTRAK","updated_at":"2026-05-25T13:38:09.453960Z"}}